Location: Gro�wechsungen
(51.4926°N, 10.6901°E)
Time: 13:39:21
(UTC+00:00)

Cosmos 2082 Rocket - Pass Details

Date: 18 January 2021
Orbit: 832 x 854 km, 71.0° (Epoch: 04 March)

Event Time Altitude Azimuth Distance (km) Brightness Sun altitude
Rises 20:01:02 0° 329° (NNW) 3,438 5.9 -39.3°
Reaches altitude 10° 20:03:29 10° 329° (NNW) 2,498 5.1 -39.7°
Enters shadow 20:04:56 18° 329° (NNW) 1,961 4.4 -39.9°
